ATLAS 5 CENTAUR R/B, 43652

Orbit data source: Space-Track

ATLAS 5 CENTAUR R/B, 43652 is space debris in HEO originally from a launch on Wed, 17 Oct 2018 UTC launched from the Air Force Eastern Test Range (AFETR). Debris objects in space refer to the collection of defunct objects orbiting the Earth. Examples of debris include non-operational satellites, rocket bodies, and fragments generated from explosions, collisions, or faulty payload assembly.

Loading next visibility...
Identifier
43652, 2018-079B
Orbit
HEO
Country
Flag of USUS
Related business
Flag of USUnited Launch Alliance/Lockheed Martin (US)
Manufacturer
ULA Decatur
Mission
Spacecraft
Bus & Motor
CENTAUR SEC, RL10C-1
Mass
~2,020 kg wet, 2,020 kg dry
Launch date (UTC)
2018-10-17 (8 years ago)
Launch vehicle
Unknown
Launch site
Air Force Eastern Test Range (AFETR)
Object type
Payload
Rocket body
Debris
Shape & HBR
Cyl + 1 Nozzle, 5.8 m
Radar Cross Section
32.260 m², Large (>1 m²)

Expand to show TLE details & history
Last TLE update: 1 day ago

TLE from 1 day ago
0 ATLAS 5 CENTAUR R/B
1 43652U 18079B   26167.01484392 -.00000109  00000-0  00000-0 0  9999
2 43652  13.3083  29.9356 4701154 328.3423  10.4433  1.84081438 48027
Epoch: 2026-06-16T00:21Z
TLE epoch observation values (Epoch: 2026-06-16T00:21:22.514Z)
Latitude
0.00012°
Longitude
120.27037°
Altitude
9,303.182 km
Speed
6.055 km/s
True Right ascension
01h 59m 37s
True Declination
0° 00' 00"
Sunlit
Object was in daylight at epoch
Visualization orbit readout
Latitude
Unknown
Longitude
Unknown
Altitude
Unknown
Speed
Unknown
Apparent Right ascension
Unknown
Apparent Declination
Unknown
Sunlit
N/A
Visualization observer readout
Local Sidereal Time
19:08:00
Azimuth
Unknown
Elevation
Unknown
Doppler factor
Unknown
Orbital elements
Apogee altitude
34,969.045 km
Perigee altitude
8,524.935 km
Semi-major axis
28,125.127 km
Eccentricity
0.47012
Inclination
13.3083°
RAAN
29.9356°
Arg. of periapsis
328.3423°
True anomaly
31.75724°
Mean anomaly
10.4433°
Eccentric anomaly
19.38252°
Mean motion
0.46015 °/min
Orbital period
782.35 mins
BSTAR
0
Loading maneuver chart data...
Computing Atmospheric mass density...

Documentation

Showing up to 5 results
|